ATLAS CENTAUR R/B, 3598

Orbit data source: Space-Track

ATLAS CENTAUR R/B, 3598 is space debris in LEO originally from a launch on Sat, 07 Dec 1968 UTC launched from the Air Force Eastern Test Range (AFETR). Debris objects in space refer to the collection of defunct objects orbiting the Earth. Examples of debris include non-operational satellites, rocket bodies, and fragments generated from explosions, collisions, or faulty payload assembly.

Loading next visibility...
Identifier
3598, 1968-110B
Orbit
LEO
Last TLE update
6 hours ago
Origin
Manufacturer
GD/Convair
Mission
Spacecraft
Bus & Motor
CENTAUR D, Unknown motor
Mass
~1,700 kg wet, ~1,700 kg dry
Launch date (UTC)
1968-12-07 (57 years ago)
Launch vehicle
Unknown
Launch site
Air Force Eastern Test Range (AFETR)
Object type
Payload
Rocket body
Debris
Shape & HBR
Cyl, 4.5 m
Radar Cross Section
25.930 m², Large (>1 m²)

Expand to show TLE details & history

TLE from 6 hours ago
0 ATLAS CENTAUR R/B
1  3598U 68110B   25199.69323660  .00000278  00000-0  64574-4 0  9999
2  3598  34.9903 202.3849 0046432  89.7511 270.8503 14.57178939996859
Epoch: 2025-07-18T16:38Z
TLE epoch observation values (Epoch: 2025-07-18T16:38:15.642Z)
Latitude
-0.00003°
Longitude
16.07865°
Altitude
700.9 km
Speed
7.508 km/s
True Right ascension
13h 29m 32s
True Declination
0° 00' 00"
Sunlit
Object was in daylight at epoch
Visualization orbit readout
Latitude
-20.25305°
Longitude
-17.05894°
Altitude
726.486 km
Speed
7.482 km/s
Apparent Right ascension
09h 51m 47s
Apparent Declination
-73° 18' 20"
Sunlit
Object is in daylight
Visualization observer readout
Local Sidereal Time
11:50:19
Azimuth
189.019° SSW
Elevation
-25.031°
Doppler factor
1
Orbital elements
Apogee altitude
738.346 km
Perigee altitude
672.565 km
Semi-major axis
7,083.592 km
Eccentricity
0.00464
Inclination
34.9903°
RAAN
202.3849°
Arg. of periapsis
89.7511°
True anomaly
270.31825°
Mean anomaly
270.8503°
Eccentric anomaly
270.58428°
Mean motion
3.64052 °/min
Orbital period
98.89 mins
BSTAR
0.000064574
Loading maneuver chart data...
Loading SW <> Apogee altitude chart data...
Loading historical data...
Loading historical data...
Loading historical data...
Loading historical data...
Loading historical data...
Loading historical data...
Loading historical data...
Other satellites on launch #110 in the year 1968 (1968-12-07 UTC)
|